Content
SEND FEEDBACK

Daily
Averages
Monthly
Summary
United States of America

CHESTERFIELD, MISSOURI


Home > North America > United States > Missouri
Elevation: 559 feet     Latitude: 38 41N     Longitude: 090 31W

WEATHER
 
SELECT A DAY
Number of Records: 203,490;   Date Range: 1/1/95 - 8/12/14
 
SHARE

PRINT THIS DATA

[ ← Previous Day ]
WEATHER ALMANAC - MARCH 23, 2013
[ Next Day → ]
[ °C ]   °F
Weather ElementAverageHighLow
Temperature44.6 °F54 °F (4:51 pm)37.4 °F (1:36 am)
Dewpoint24.6 °F33.1 °F (11:51 pm)19 °F (10:51 am)
Humidity46.5 %68 % (11:51 pm)33 % (12:51 pm)
Barometer29.98 in30.08 in (8:51 am)29.86 in (7:51 pm)
Wind Speed8.6 mph17.3 mph (4:51 pm)
Wind Gust24.2 mph (4:51 pm)
Weather ElementAverage
Visibility10 mi
Wind DirectionENE (66.8 °)

Weather ElementTotal
Precipitation0.01 in
Heating Degree Days19.3 (Base 65)
Averaged from 25 records on March 23, 2013
WEATHER CONDITIONS BREAKOUT
WIND DIRECTION BREAKOUT
WEATHER BY HOUR - MARCH 23, 2013
[ °C ]   °F
Local TimeTemperatureDewpointHumidityBarometerVisibilityWind DirectionWind SpeedGust SpeedPrecipitationEventsConditions
1:36 AM37.4 °F21.2 °F52 %30.02 in10.0 miEast (90°)5.8 mphOvercast
1:51 AM37.9 °F21.9 °F53 %30.05 in10.0 miEast (80°)4.6 mphOvercast
2:45 AM37.4 °F23.0 °F56 %30.02 in10.0 miESE (110°)5.8 mphOvercast
2:51 AM37.9 °F23.0 °F55 %30.04 in10.0 miESE (110°)4.6 mphOvercast
3:51 AM37.9 °F23.0 °F55 %30.02 in10.0 miENE (60°)3.5 mphOvercast
4:51 AM37.9 °F21.9 °F53 %30.02 in10.0 miNE (40°)5.8 mphOvercast
5:51 AM37.9 °F21.9 °F53 %30.03 in10.0 miNE (50°)5.8 mphOvercast
6:51 AM37.9 °F21.9 °F53 %30.06 in10.0 miENE (60°)4.6 mphOvercast
7:51 AM37.9 °F21.9 °F53 %30.06 in10.0 miENE (60°)5.8 mphOvercast
8:51 AM39.0 °F21.9 °F50 %30.08 in10.0 miNE (50°)5.8 mphOvercast
9:51 AM41.0 °F21.2 °F45 %30.04 in10.0 miENE (70°)10.4 mphOvercast
10:51 AM43.0 °F19.0 °F38 %30.06 in10.0 miEast (80°)10.4 mphMostly Cloudy
11:51 AM46.0 °F19.0 °F34 %30.05 in10.0 miNE (40°)5.8 mphScattered Clouds
12:51 PM48.9 °F21.0 °F33 %30.02 in10.0 miENE (70°)9.2 mphScattered Clouds
1:51 PM51.8 °F24.8 °F35 %29.98 in10.0 miNE (50°)8.1 mphScattered Clouds
2:51 PM53.6 °F24.8 °F33 %29.95 in10.0 miNE (40°)11.5 mph17.3 mphScattered Clouds
3:51 PM53.1 °F26.1 °F35 %29.92 in10.0 miENE (70°)11.5 mphMostly Cloudy
4:51 PM54.0 °F28.0 °F37 %29.90 in10.0 miENE (70°)17.3 mph24.2 mphMostly Cloudy
5:51 PM53.1 °F28.0 °F38 %29.88 in10.0 miEast (100°)12.7 mphMostly Cloudy
6:51 PM52.0 °F28.9 °F41 %29.89 in10.0 miEast (80°)11.5 mph0.00 inRainLight Rain
7:51 PM50.0 °F32.0 °F50 %29.86 in10.0 miENE (70°)11.5 mph0.01 inOvercast
8:51 PM50.0 °F28.9 °F44 %29.86 in10.0 miENE (60°)10.4 mphOvercast
9:51 PM48.9 °F28.9 °F46 %29.86 in10.0 miENE (60°)6.9 mph0.00 inOvercast
10:51 PM46.9 °F30.0 °F52 %29.88 in10.0 miENE (60°)11.5 mph0.00 inRainLight Rain
11:51 PM43.0 °F33.1 °F68 %29.87 in9.0 miNE (40°)15.0 mph20.7 mph0.00 inRainLight Rain
Hourly data recorded from KSTL, located miles away from Chesterfield, Missouri







STORIES FROM OUR PARTNERS